When you browse on this site, cookies collect data to enhance your experience and personalize the content and advertising you see.
Visit our Privacy Policy to learn more. By continuing to use the site, you agree to this use of cookies and data.

Tiempo cada hora Mbandaka

Hoy, 4 Agosto, Martes

Tiempo Temperatura Precipitaciones Viento Presión Humedad
00:00 +23°C° 0 mm 1 mps 733 mmHg 94%
01:00 +21°C° 0 mm 0 mps 733 mmHg 94%
02:00 +23°C° 0.1 mm 1 mps 732 mmHg 95%
03:00 +23°C° 0.1 mm 1 mps 732 mmHg 95%
04:00 +22°C° 0.1 mm 1 mps 732 mmHg 96%
05:00 +23°C° 0 mm 1 mps 733 mmHg 95%
06:00 +23°C° 0 mm 1 mps 733 mmHg 93%
07:00 +24°C° 0 mm 1 mps 733 mmHg 91%
08:00 +26°C° 0 mm 1 mps 733 mmHg 83%
09:00 +28°C° 0 mm 2 mps 734 mmHg 74%
10:00 +30°C° 0 mm 2 mps 734 mmHg 65%
11:00 +30°C° 0.7 mm 2 mps 733 mmHg 65%
12:00 +30°C° 0.7 mm 2 mps 732 mmHg 65%
13:00 +31°C° 0.7 mm 2 mps 732 mmHg 64%
14:00 +30°C° 0.9 mm 2 mps 731 mmHg 68%
15:00 +30°C° 0.9 mm 1 mps 731 mmHg 72%
16:00 +29°C° 0.9 mm 1 mps 730 mmHg 76%
17:00 +28°C° 0.6 mm 1 mps 731 mmHg 82%
18:00 +26°C° 0.6 mm 1 mps 731 mmHg 87%
19:00 +25°C° 0.6 mm 1 mps 731 mmHg 92%
20:00 +24°C° 0 mm 1 mps 732 mmHg 92%
21:00 +24°C° 0 mm 1 mps 732 mmHg 92%
22:00 +24°C° 0 mm 1 mps 733 mmHg 93%
23:00 +24°C° 0 mm 1 mps 733 mmHg 93%

Mañana, 5 Agosto, Miércoles

Tiempo Temperatura Precipitaciones Viento Presión Humedad
00:00 +23°C° 0 mm 1 mps 732 mmHg 94%
01:00 +23°C° 0 mm 1 mps 732 mmHg 94%
02:00 +23°C° 0 mm 1 mps 732 mmHg 94%
03:00 +23°C° 0 mm 1 mps 732 mmHg 94%
04:00 +23°C° 0 mm 1 mps 732 mmHg 94%
05:00 +23°C° 0.3 mm 1 mps 732 mmHg 94%
06:00 +23°C° 0.3 mm 1 mps 733 mmHg 95%
07:00 +23°C° 0.3 mm 1 mps 733 mmHg 95%
08:00 +24°C° 0.3 mm 1 mps 733 mmHg 93%
09:00 +24°C° 0.3 mm 2 mps 734 mmHg 92%
10:00 +24°C° 0.3 mm 2 mps 734 mmHg 91%
11:00 +25°C° 0 mm 2 mps 733 mmHg 85%
12:00 +26°C° 0 mm 2 mps 733 mmHg 79%
13:00 +27°C° 0 mm 1 mps 733 mmHg 73%
14:00 +27°C° 0.3 mm 1 mps 732 mmHg 73%
15:00 +28°C° 0.3 mm 1 mps 731 mmHg 74%
16:00 +28°C° 0.3 mm 1 mps 731 mmHg 74%
17:00 +27°C° 0.1 mm 1 mps 731 mmHg 79%
18:00 +24°C° 0.1 mm 0 mps 731 mmHg 83%
19:00 +23°C° 0.1 mm 0 mps 731 mmHg 88%
20:00 +23°C° 0 mm 0 mps 732 mmHg 88%
21:00 +22°C° 0 mm 0 mps 732 mmHg 88%
22:00 +22°C° 0 mm 0 mps 732 mmHg 89%
23:00 +22°C° 0.1 mm 0 mps 732 mmHg 89%

Pasado mañana, 6 Agosto, Jueves

Tiempo Temperatura Precipitaciones Viento Presión Humedad
00:00 +22°C° 0.1 mm 0 mps 732 mmHg 90%
01:00 +22°C° 0.1 mm 0 mps 732 mmHg 90%
02:00 +23°C° 0.1 mm 1 mps 732 mmHg 92%
03:00 +23°C° 0.1 mm 1 mps 732 mmHg 93%
04:00 +23°C° 0.1 mm 1 mps 731 mmHg 94%
05:00 +23°C° 0 mm 1 mps 732 mmHg 93%
06:00 +24°C° 0 mm 1 mps 732 mmHg 92%
07:00 +24°C° 0 mm 1 mps 733 mmHg 90%
08:00 +26°C° 0 mm 1 mps 733 mmHg 82%
09:00 +27°C° 0 mm 1 mps 733 mmHg 74%
10:00 +29°C° 0 mm 1 mps 733 mmHg 66%
11:00 +30°C° 0 mm 1 mps 732 mmHg 62%
12:00 +31°C° 0 mm 1 mps 732 mmHg 59%
13:00 +32°C° 0 mm 1 mps 731 mmHg 55%
14:00 +32°C° 0 mm 1 mps 730 mmHg 55%
15:00 +32°C° 0 mm 1 mps 730 mmHg 54%
16:00 +32°C° 0 mm 1 mps 729 mmHg 54%
17:00 +31°C° 0 mm 1 mps 730 mmHg 60%
18:00 +29°C° 0 mm 1 mps 730 mmHg 66%
19:00 +25°C° 0 mm 0 mps 731 mmHg 72%
20:00 +25°C° 0 mm 0 mps 731 mmHg 74%
21:00 +24°C° 0 mm 0 mps 731 mmHg 75%
22:00 +24°C° 0 mm 0 mps 732 mmHg 76%
23:00 +23°C° 0 mm 0 mps 732 mmHg 78%

7 Agosto, Viernes

Tiempo Temperatura Precipitaciones Viento Presión Humedad
00:00 +25°C° 0 mm 1 mps 732 mmHg 79%
01:00 +25°C° 0 mm 1 mps 732 mmHg 80%
02:00 +24°C° 0.1 mm 1 mps 732 mmHg 84%
03:00 +24°C° 0.1 mm 1 mps 731 mmHg 87%
04:00 +23°C° 0.1 mm 1 mps 731 mmHg 91%
05:00 +24°C° 0 mm 1 mps 732 mmHg 89%
06:00 +24°C° 0 mm 1 mps 733 mmHg 88%
07:00 +25°C° 0 mm 1 mps 733 mmHg 87%
08:00 +26°C° 0.1 mm 2 mps 734 mmHg 78%
09:00 +28°C° 0.1 mm 2 mps 734 mmHg 70%
10:00 +30°C° 0.1 mm 2 mps 734 mmHg 61%
11:00 +31°C° 0.2 mm 2 mps 733 mmHg 58%
12:00 +32°C° 0.2 mm 2 mps 733 mmHg 55%
13:00 +34°C° 0.2 mm 2 mps 732 mmHg 53%
14:00 +32°C° 0.1 mm 2 mps 731 mmHg 54%
15:00 +32°C° 0.1 mm 1 mps 731 mmHg 55%
16:00 +32°C° 0.1 mm 1 mps 730 mmHg 57%
17:00 +30°C° 0 mm 1 mps 730 mmHg 63%
18:00 +29°C° 0 mm 1 mps 731 mmHg 69%
19:00 +25°C° 0 mm 0 mps 731 mmHg 75%
20:00 +25°C° 0 mm 0 mps 732 mmHg 76%
21:00 +24°C° 0 mm 0 mps 732 mmHg 78%
22:00 +24°C° 0 mm 0 mps 733 mmHg 80%
23:00 +26°C° 0 mm 1 mps 733 mmHg 81%

8 Agosto, Sábado

Tiempo Temperatura Precipitaciones Viento Presión Humedad
00:00 +25°C° 0 mm 1 mps 733 mmHg 83%
01:00 +25°C° 0 mm 1 mps 732 mmHg 84%
02:00 +25°C° 0 mm 1 mps 732 mmHg 85%
03:00 +24°C° 0 mm 1 mps 732 mmHg 86%
04:00 +24°C° 0 mm 1 mps 732 mmHg 87%
05:00 +24°C° 0.2 mm 1 mps 732 mmHg 86%
06:00 +25°C° 0.2 mm 1 mps 733 mmHg 85%
07:00 +25°C° 0.2 mm 1 mps 733 mmHg 85%
08:00 +27°C° 0.4 mm 1 mps 734 mmHg 77%
09:00 +28°C° 0.4 mm 2 mps 734 mmHg 69%
10:00 +30°C° 0.4 mm 2 mps 734 mmHg 61%
11:00 +31°C° 0.4 mm 2 mps 733 mmHg 60%
12:00 +31°C° 0.4 mm 2 mps 733 mmHg 59%
13:00 +32°C° 0.4 mm 2 mps 732 mmHg 58%
14:00 +31°C° 1 mm 2 mps 731 mmHg 65%
15:00 +29°C° 1 mm 1 mps 731 mmHg 72%
16:00 +28°C° 1 mm 1 mps 730 mmHg 79%
17:00 +27°C° 0.3 mm 1 mps 731 mmHg 81%
18:00 +26°C° 0.3 mm 1 mps 731 mmHg 83%
19:00 +23°C° 0.3 mm 0 mps 732 mmHg 86%
20:00 +23°C° 0.3 mm 0 mps 732 mmHg 87%
21:00 +23°C° 0.3 mm 0 mps 732 mmHg 88%
22:00 +22°C° 0.3 mm 0 mps 733 mmHg 89%
23:00 +22°C° 0.4 mm 0 mps 732 mmHg 91%

9 Agosto, Domingo

Tiempo Temperatura Precipitaciones Viento Presión Humedad
00:00 +22°C° 0.4 mm 0 mps 732 mmHg 92%
01:00 +24°C° 0.4 mm 1 mps 732 mmHg 93%
02:00 +23°C° 0.5 mm 1 mps 732 mmHg 94%
03:00 +23°C° 0.5 mm 1 mps 731 mmHg 95%
04:00 +21°C° 0.5 mm 0 mps 731 mmHg 96%
05:00 +23°C° 0.2 mm 1 mps 732 mmHg 95%
06:00 +24°C° 0.2 mm 1 mps 732 mmHg 94%
07:00 +24°C° 0.2 mm 1 mps 732 mmHg 93%
08:00 +26°C° 0.8 mm 1 mps 733 mmHg 87%
09:00 +27°C° 0.8 mm 1 mps 733 mmHg 82%
10:00 +28°C° 0.8 mm 2 mps 733 mmHg 77%
11:00 +29°C° 0.3 mm 2 mps 732 mmHg 71%
12:00 +30°C° 0.3 mm 2 mps 732 mmHg 66%
13:00 +31°C° 0.3 mm 2 mps 731 mmHg 61%
14:00 +30°C° 1.4 mm 2 mps 731 mmHg 67%
15:00 +29°C° 1.4 mm 1 mps 730 mmHg 74%
16:00 +28°C° 1.4 mm 1 mps 730 mmHg 81%
17:00 +27°C° 0.2 mm 1 mps 730 mmHg 84%
18:00 +26°C° 0.2 mm 1 mps 730 mmHg 87%
19:00 +25°C° 0.2 mm 1 mps 731 mmHg 90%
20:00 +25°C° 0 mm 1 mps 731 mmHg 91%
21:00 +25°C° 0 mm 1 mps 732 mmHg 92%
22:00 +25°C° 0 mm 1 mps 732 mmHg 93%
23:00 +24°C° 0 mm 1 mps 732 mmHg 93%
Mostrar más